Weather History for Craig, CO

Change the Weather History Date:

Sunday, April 14, 2013

  Actual Average Record
Temperature  
Mean Temperature 34 °F 42 °F  
Max Temperature 43 °F 58 °F 73 °F (2002)
Min Temperature 24 °F 27 °F 13 °F (2014)
Degree Days  
Heating Degree Days 31 23  
Month to date heating degree days 349 341  
Since 1 July heating degree days 7699 7679  
Cooling Degree Days 0 0  
Month to date cooling degree days 0 0  
Year to date cooling degree days 0 0  
Moisture  
Dew Point 16 °F    
Average Humidity 57    
Maximum Humidity 89    
Minimum Humidity 25    
Precipitation  
Precipitation T in 0.06 in 0.11 in (2011)
Month to date precipitation 1.32 0.66  
Year to date precipitation 3.03 3.65  
Sea Level Pressure  
Sea Level Pressure 29.75 in    
Wind  
Wind Speed 12 mph (West)    
Max Wind Speed 25 mph    
Max Gust Speed 32 mph    
Visibility 10 miles    
Events      
T = Trace of Precipitation, MM = Missing Value Source: NWS Daily Summary

Daily Weather History Graph

Daily Weather History Graph

Search for Another Location

Airport:

Trip Planner

Search our weather history database for the weather conditions in past years. The results will help you decide how hot, cold, wet, or windy it might be!

Date:

Astronomy

Apr. 14, 2013 Rise Set
Actual Time 6:32 AM MDT 7:48 PM MDT
Civil Twilight 6:04 AM MDT 8:16 PM MDT
Nautical Twilight 5:30 AM MDT 8:50 PM MDT
Astronomical Twilight 4:55 AM MDT 9:26 PM MDT
Moon 9:11 AM MDT (4/14) No Moon Set
Length of Visible Light 14h 12m
Length of Day
13h 15m
Waxing Crescent, 17% of the Moon is Illuminated
Apr 14
Waxing Crescent
Apr 18
First Quarter
Apr 25
Full
May 2
Last Quarter
May 9
New

Hourly Weather History & Observations

Time (MDT) Temp. Windchill Dew Point Humidity Pressure Visibility Wind Dir Wind Speed Gust Speed Precip Events Conditions
12:53 AM 33.1 °F - 30.0 °F 89% 29.61 in 10.0 mi Calm Calm - N/A   Overcast
1:53 AM 33.1 °F 28.7 °F 30.0 °F 89% 29.61 in 10.0 mi NW 4.6 mph - N/A   Overcast
2:53 AM 32.0 °F 23.0 °F 17.1 °F 54% 29.62 in 10.0 mi NW 11.5 mph 17.3 mph N/A   Overcast
3:53 AM 30.0 °F 24.1 °F 21.0 °F 69% 29.64 in 10.0 mi WSW 5.8 mph - N/A   Overcast
4:53 AM 28.0 °F 19.3 °F 19.0 °F 69% 29.68 in 10.0 mi West 9.2 mph - N/A   Clear
5:53 AM 27.0 °F 15.6 °F 16.0 °F 63% 29.69 in 10.0 mi WSW 13.8 mph - N/A   Scattered Clouds
6:53 AM 25.0 °F 15.5 °F 14.0 °F 63% 29.76 in 10.0 mi WSW 9.2 mph - N/A   Clear
7:53 AM 26.1 °F 15.0 °F 14.0 °F 60% 29.81 in 10.0 mi WSW 12.7 mph - N/A   Clear
8:53 AM 28.9 °F 17.3 °F 12.0 °F 49% 29.82 in 10.0 mi West 16.1 mph - N/A   Clear
9:53 AM 30.9 °F 19.1 °F 12.9 °F 47% 29.82 in 10.0 mi West 18.4 mph - N/A   Clear
10:53 AM 33.1 °F 23.4 °F 15.1 °F 48% 29.84 in 10.0 mi West 13.8 mph - N/A   Partly Cloudy
11:53 AM 34.0 °F 24.2 °F 12.0 °F 40% 29.83 in 10.0 mi WSW 15.0 mph 24.2 mph N/A   Overcast
12:53 PM 36.0 °F 26.7 °F 10.0 °F 34% 29.81 in 10.0 mi WSW 15.0 mph 24.2 mph N/A   Overcast
1:33 PM 35.6 °F 32.8 °F 12.2 °F 38% 29.78 in 10.0 mi Variable 3.5 mph 20.7 mph N/A   Overcast
1:53 PM 39.2 °F 29.8 °F 12.2 °F 33% 29.78 in 10.0 mi SW 18.4 mph 32.2 mph N/A   Overcast
2:53 PM 41.0 °F 33.1 °F 19.0 °F 41% 29.78 in 10.0 mi SSW 15.0 mph - N/A   Mostly Cloudy
3:53 PM 42.1 °F 32.8 °F 14.0 °F 32% 29.76 in 10.0 mi West 21.9 mph 31.1 mph N/A   Scattered Clouds
4:53 PM 41.0 °F 35.8 °F 9.0 °F 27% 29.75 in 10.0 mi West 8.1 mph - N/A   Mostly Cloudy
5:53 PM 41.0 °F 33.5 °F 8.1 °F 26% 29.73 in 10.0 mi WSW 13.8 mph - N/A   Clear
6:53 PM 41.0 °F 34.3 °F 10.9 °F 29% 29.74 in 10.0 mi West 11.5 mph - N/A   Overcast
7:53 PM 39.0 °F 34.8 °F 12.9 °F 34% 29.75 in 10.0 mi NW 5.8 mph - N/A   Overcast
8:53 PM 39.0 °F 32.3 °F 15.1 °F 38% 29.78 in 10.0 mi WNW 10.4 mph 17.3 mph N/A   Overcast
9:53 PM 37.0 °F 32.4 °F 18.0 °F 46% 29.77 in 10.0 mi West 5.8 mph - N/A   Overcast
10:53 PM 34.0 °F 25.5 °F 18.0 °F 52% 29.75 in 10.0 mi North 11.5 mph - N/A   Overcast
11:53 PM 30.9 °F 22.2 °F 21.0 °F 67% 29.75 in 10.0 mi NNE 10.4 mph - N/A   Overcast